• Processing (Info)

  • MPEC 2010-U12 : 2010 UE

    The following Minor Planet Electronic Circular may be linked-to from your own Web pages, but must not otherwise be redistributed electronically.

    A form allowing access to any MPEC is at the bottom of this page.


    Read MPEC 2010-U11 Read MPEC 2010-U13


    M.P.E.C. 2010-U12                                Issued 2010 Oct. 17, 22:00 UT
    
         The Minor Planet Electronic Circulars contain information on unusual
             minor planets and routine data on comets.  They are published
       on behalf of Commission 20 of the International Astronomical Union by the
              Minor Planet Center, Smithsonian Astrophysical Observatory,
                              Cambridge, MA 02138, U.S.A.
    
                 Prepared using the Tamkin Foundation Computer Network
    
                                  MPC@CFA.HARVARD.EDU
           URL https://www.minorplanetcenter.org/iau/mpc.html  ISSN 1523-6714
    
                                        2010 UE
    
    Observations:
         K10U00E* C2010 10 17.30160 01 53 31.92 +17 03 17.1          20.1 V EU012G96
         K10U00E  C2010 10 17.30795 01 53 37.42 +17 04 29.1          19.9 V EU012G96
         K10U00E  C2010 10 17.31433 01 53 42.82 +17 05 38.5          20.0 V EU012G96
         K10U00E KC2010 10 17.33525901 53 40.91 +17 06 57.5          19.9 V EU012H21
         K10U00E tC2010 10 17.34246 01 54 06.59 +17 10 37.8          20.5 V EU012691
         K10U00E KC2010 10 17.34574101 53 50.31 +17 08 39.6          19.8 V EU012H21
         K10U00E tC2010 10 17.34802 01 54 11.03 +17 11 34.1          19.9 V EU012691
         K10U00E KC2010 10 17.35042101 53 54.49 +17 09 22.8          20.1 V EU012H21
         K10U00E  C2010 10 17.35682 01 54 17.24 +17 12 51.2          19.9 V EU012G96
         K10U00E  C2010 10 17.35785 01 54 18.03 +17 13 00.9          20.0 V EU012G96
         K10U00E  C2010 10 17.35881 01 54 18.82 +17 13 10.5          19.8 V EU012G96
         K10U00E  C2010 10 17.35982 01 54 19.58 +17 13 19.9          19.7 V EU012G96
         K10U00E KC2010 10 17.36351 01 54 11.49 +17 11 51.9          20.0 R EU012H36
         K10U00E KC2010 10 17.36935 01 54 16.28 +17 12 44.4          19.6 R EU012H36
         K10U00E KC2010 10 17.37443 01 54 20.62 +17 13 29.8          20.1 R EU012H36
         K10U00E tC2010 10 17.38862 01 54 42.03 +17 17 46.9                 EU012691
         K10U00E tC2010 10 17.39133 01 54 44.23 +17 18 10.7          20.2 V EU012691
         K10U00E tC2010 10 17.39428 01 54 46.43 +17 18 36.1          20.4 V EU012691
    
    Observer details:
    691 Steward Observatory, Kitt Peak.  Observer R. S. McMillan.  0.9-m f/3
        reflector + CCD.
    G96 Mt. Lemmon Survey.  Observer A. Boattini.  Measurers J. D. Ahern,
        E. C. Beshore, A. Boattini, G. J. Garradd, A. R. Gibbs, A. D. Grauer,
        R. E. Hill, R. A. Kowalski, S. M. Larson, R. H. McNaught.  1.5-m reflector
        + CCD.
    H21 Astronomical Research Observatory, Westfield.  Observer R. Holmes.
        Measurers S. Foglia, T. Vorobjov.  0.81-m f/4.0 astrograph + CCD.
    H36 Sandlot Observatory, Scranton.  Observer G. Hug.  0.56-m reflector + CCD.
    
    Orbital elements:
    2010 UE                                                  Earth MOID = 0.0003 AU
    Epoch 2010 July 23.0 TT = JDT 2455400.5                 MPC
    M 349.61672              (2000.0)            P               Q
    n   0.23063792     Peri.  294.63051     +0.73814425     +0.67431836
    a   2.6333924      Node    22.98639     -0.59798347     +0.66831365
    e   0.7127505      Incl.    3.07144     -0.31234410     +0.31408854
    P   4.27           H   29.6           G   0.15           U   6
    Residuals in seconds of arc
    101017 G96  1.7+  2.2+    101017 691  0.3-  0.2-    101017 H36  1.0+  0.5+
    101017 G96 (1.6+  2.5+)   101017 H21  0.8-  0.5-    101017 H36  1.0-  0.0
    101017 G96  0.9+  1.4+    101017 G96  0.0   0.5+    101017 H36  0.1+  0.1+
    101017 H21  0.6-  0.2+    101017 G96  0.2-  0.4+    101017 691  1.6-  0.2-
    101017 691  0.8-  1.5-    101017 G96  0.4+  0.9+    101017 691  0.9+  0.4+
    101017 H21  0.9-  0.6+    101017 G96  0.0   0.8+    101017 691  1.0+  0.7+
    
    Ephemeris:
    2010 UE                  a,e,i = 2.63, 0.71, 3                   q = 0.7564
    Date    TT    R. A. (2000) Decl.     Delta      r     Elong.  Phase     V
    2010 10 16.0  14 38.70   -23 07.1    0.00496  0.992    23.2   156.7    28.0
    2010 10 16.5  22 21.32   -17 53.5    0.00079  0.997   127.4    52.5    16.0
    2010 10 17.0  01 43.66   +15 41.0    0.00557  1.002   172.2     7.8    18.9
    2010 10 17.5  01 56.79   +17 36.6    0.0108   1.007   169.2    10.7    20.4
    2010 10 18.0  02 01.43   +18 16.2    0.0159   1.012   168.4    11.4    21.3
    2010 10 18.5  02 03.80   +18 36.0    0.0211   1.017   168.2    11.6    22.0
    2010 10 19.0  02 05.24   +18 47.9    0.0264   1.022   168.2    11.4    22.5
    2010 10 19.5  02 06.20   +18 55.8    0.0316   1.027   168.4    11.2    22.8
    2010 10 20.0  02 06.89   +19 01.3    0.0368   1.032   168.7    10.9    23.2
    2010 10 20.5  02 07.40   +19 05.4    0.0420   1.037   169.0    10.6    23.5
    2010 10 21.0  02 07.80   +19 08.5    0.0472   1.042   169.3    10.2    23.7
    
    Carl W. Hergenrother         (C) Copyright 2010 MPC           M.P.E.C. 2010-U12
    

    Read MPEC 2010-U11 Read MPEC 2010-U13


    MPEC number:

    Enter an MPEC number in one of the following forms:

    • 1997-B01 (the full form)
    • J97B01 (the packed version of the full form)
    • B01 (the abbreviated form)